Regional Weather Roundup
Issued by NWS

Home | Current Version | Previous Version | Text Only | Print | Product List | Glossary On
Versions: 1 2 3 4 5 6 7 8 9 10 11 12 13 14 15 16 17 18 19 20 21 22 23 24 25 26 27 28 29 30 31 32 33 34 35 36 37 38 39 40 41 42 43 44 45 46 47 48 49 50
000
ASUS44 KFWD 250315
RWRTX
NORTH TEXAS HOURLY WEATHER ROUNDUP
NATIONAL WEATHER SERVICE FORT WORTH TX
1000 PM CDT WED AUG 24 2016

NOTE: "FAIR" INDICATES FEW OR NO CLOUDS BELOW 12,000 FEET WITH NO
SIGNIFICANT WEATHER AND/OR OBSTRUCTIONS TO VISIBILITY.

TXZ118-119-250400-
DALLAS/FORT WORTH METROPLEX

CITY           SKY/WX    TMP DP  RH WIND       PRES   REMARKS
DFW AIRPORT    PTCLDY    85  69  58 SE10      30.04R
DALLAS LOVE    MOCLDY    87  70  56 S14       30.05R HX  92
FTW MEACHAM    CLEAR     86  69  56 SE13      30.04R HX  90
DAL-EXECUTIVE  PTCLDY    83  71  67 SE7       30.06R
FTW-ALLIANCE   CLOUDY    83  69  62 S8        30.04R
FTW-NAS-JRB    CLEAR     86  68  54 SE13      30.05
FTW-SPINKS     CLEAR     80  70  70 SE7       30.07R
ARLINGTON      PTCLDY    84  70  62 SE10      30.06R
GRAND PRAIRIE  PTCLDY    84  69  59 SE8       30.07R
ADDISON        CLEAR     84  70  61 SE15G21   30.06R
MESQUITE       PTCLDY    80  73  78 SE6       30.06R
LANCASTER      CLEAR     81  72  74 SE3       30.07R
$$

TXZ091>094-102>105-117-120-121-131>134-250400-
NORTH CENTRAL TEXAS

CITY           SKY/WX    TMP DP  RH WIND       PRES   REMARKS
SHRMAN/DENISON CLEAR     83  72  69 SE9       30.07R
GAINESVILLE      N/A     80  70  73 S8        30.07R
BOWIE          CLEAR     81  70  68 SE7       30.05R
BRIDGEPORT     CLEAR     82  71  69 SE8       30.06R
DECATUR        CLEAR     81  68  65 SE8       30.06R
DENTON         CLEAR     83  70  64 SE10      30.05R
MCKINNEY       CLOUDY    81  72  74 S7        30.06R
GREENVILLE     CLEAR     79  70  73 SE6       30.08R
ROCKWALL       CLOUDY    82  73  74 SE7       30.06R HAZE
TERRELL        CLEAR     81  72  74 SE5       30.07R
WAXAHACHIE     PTCLDY    81  71  72 SE6       30.08R
CLEBURNE       CLEAR     81  73  78 SE9       30.08R
GRANBURY       CLEAR     85  69  57 SE9       30.06R
$$

TXZ083>090-098>101-113>116-127>130-139>142-154-155-250400-
WESTERN NORTH TEXAS

CITY           SKY/WX    TMP DP  RH WIND       PRES   REMARKS
WICHITA FALLS  CLEAR     83  67  58 S10       30.01R
WF-KICKAPOO    CLEAR     83  67  57 SE9       30.03R
VERNON         PTCLDY    76  63  65 E5        30.04S THUNDER
ABILENE        CLEAR     79  66  64 S9        30.06R
ABILENE-DYESS  CLEAR     82  66  57 SE10      30.04R
CISCO          CLEAR     81  66  61 S10       30.07R
BRECKENRIDGE   CLEAR     83  66  56 SE8       30.04R
GRAHAM         CLEAR     81  69  65 E3        30.03R
MINERAL WELLS  CLEAR     80  69  69 SE8       30.03R
STEPHENVILLE   CLEAR     81  67  63 SE6       30.10R
COMANCHE       CLEAR     81  69  67 S9        30.07R
BROWNWOOD      PTCLDY    82  66  57 SE12      30.06R
COLEMAN        CLEAR     82  64  54 S8        30.07R
$$

TXZ143>147-156>162-174-175-250400-
CENTRAL TEXAS

CITY           SKY/WX    TMP DP  RH WIND       PRES   REMARKS
WACO           CLEAR     83  73  72 SE8       30.06R
HILLSBORO      CLEAR     81  71  72 SE8       30.07R
CORSICANA      CLEAR     81  73  76 SE5       30.07S
MEXIA          CLEAR     81  73  78 SE3       30.07R
HEARNE         CLEAR     82  74  77 CALM      30.07R
CAMERON        CLEAR     82  74  76 CALM      30.06S
TEMPLE         CLEAR     80  72  76 SE7       30.07R
KILLEEN        CLEAR     77  70  79 SE9       30.07R
KILLEEN-SKYLRK CLEAR     82  71  69 SE6       30.08R
FORT HOOD      CLEAR     82  69  66 SE7       30.05R
GATESVILLE     CLEAR     79  72  78 CALM      30.10R
HAMILTON       CLEAR     79  68  70 S8        30.09R
LAMPASAS       CLEAR     78  70  77 CALM      30.09R
$$

TXZ095>097-106>112-122>126-135>138-148>153-164>167-250400-
EAST TEXAS

CITY           SKY/WX    TMP DP  RH WIND       PRES   REMARKS
PARIS          CLEAR     79  70  73 SE8       30.08R
SULPHUR SPRNGS CLEAR     83  71  65 S6        30.09R
MOUNT PLEASANT CLEAR     80  74  81 SE3       30.09R
GILMER         CLOUDY    81  75  80 CALM      30.08R
TYLER          CLEAR     83  76  79 SE6       30.07S HX  91
LONGVIEW       CLEAR     80  76  87 SE5       30.07R
MARSHALL       CLEAR     76  74  91 CALM      30.10S
ATHENS         CLOUDY    79  73  83 CALM      30.07R
PALESTINE      CLEAR     82  75  80 CALM      30.08S
JACKSONVILLE   PTCLDY    82  76  80 S3        30.11S HX  90
HENDERSON      CLOUDY    78  75  91 CALM      30.10R
CENTER         PTCLDY    81  79  95 CALM      30.10S HX  90
NACOGDOCHES    CLOUDY   N/A N/A N/A SE3       30.07R
LUFKIN         PTCLDY    81  75  82 S5        30.08R
$$

SUPPLEMENTAL OBSERVATIONS (CENTRAL)

CITY           SKY/WX    TMP DP  RH WIND       PRES   REMARKS
PAT MAYSE LAKE   N/A     82  73  74 SE7         N/A
MCGREGOR         N/A     81  72  74 SE5         N/A
TEMPLE           N/A     82  72  69 SE5         N/A
$$

SUPPLEMENTAL OBSERVATIONS (WEST)

CITY           SKY/WX    TMP DP  RH WIND       PRES   REMARKS
POSSUM KINGDOM   N/A     82  66  57 SE8         N/A
GRANBURY         N/A     84  68  58 SE10        N/A
HAMBY            N/A     81  64  57 SE6         N/A
IVIE RESERVOIR   N/A     81  66  61 SE7         N/A
COLORADO BEND    N/A     79  66  65 S2          N/A
$$

SUPPLEMENTAL OBSERVATIONS (EAST)

CITY           SKY/WX    TMP DP  RH WIND       PRES   REMARKS
CLARKSVILLE      N/A     81  73  78 SE3         N/A
GILMER           N/A     81  75  83 CALM        N/A
HENDERSON        N/A     79  75  89 CALM        N/A
LUFKIN           N/A     81  79  94 MISG        N/A
S SABINE NF      N/A     79  77  94 S1          N/A
$$

SUPPLEMENTAL OBSERVATIONS ARE A COLLECTION OF AUTOMATED INSTRUMENTS
THAT ARE MAINTAINED BY A VARIETY OF FEDERAL AND STATE AGENCIES.
CERTAIN ELEMENTS...SUCH AS HUMIDITY VALUES AND SUSTAINED WIND
SPEEDS...MAY BE APPROXIMATED.





USA.gov is the U.S. government's official web portal to all federal, state and local government web resources and services.